Location: ČR
(50.0000°N, 15.0000°E)
Time: 22:00:22
(UTC+00:00)

Vanguard 3 - Pass Details

Date: 27 October 2021
Orbit: 508 x 3260 km, 33.4° (Epoch: 04 December)

Event Time Altitude Azimuth Distance (km) Brightness Sun altitude
Rises 20:48:55 0° 255° (WSW) 4,623 11.3 -46.2°
Reaches altitude 10° 20:54:02 10° 231° (SW) 4,214 10.8 -46.8°
Enters shadow 20:54:27 11° 229° (SW) 4,210 10.7 -46.8°
Maximum altitude 20:58:53 13° 206° (SSW) 4,418 - -47.3°
Drops below altitude 10° 21:04:42 10° 182° (S) 5,215 - -47.9°
Sets 21:13:00 0° 162° (SSE) 6,787 - -48.7°
